Torna al catalogo

STARLINK-36924

AttivoComunicazioniVLEO
NORAD 68054·PAYLOAD·🇺🇸 United States

Lanciato Mar 2, 2026 da Vandenberg Space Force Base

Loading…

Prossimi Passaggi (prossime 24 ore)

TLE

AggiornatoSource: CelesTrak SupGP

Epoca: Sep 15, 2026, 03:19 UTC

1 68054C 26041Q   26258.13868056 -.00121840  00000+0 -35969-2 0  2585
2 68054  53.1574 245.0051 0001285  91.7132 247.4984 15.34477103    10

Traccia STARLINK-36924 in tempo reale con AllMySat

Download on the App Store